Flag for Uzbekistan Weather past 2 weeks in Tashkent, Uzbekistan

Now
59 °F

Passing clouds.


Feels Like: 58 °F
Forecast: 62 / 76 °F
Wind: 6 mph from Southeast

Location: Tashkent

Current Time: Oct 2, 2014 at 12:11:31 AM

Latest Report: Oct 1, 2014 at 11:30 PM


Visibility: N/A

Pressure: 30.07 "Hg

Humidity: 72%

Dew point: 50 °F

Location of TashkentLocation

Historic Weather in Tashkent — Graph

°F

Tashkent temperature yesterday

Maximum temperature yesterday: 72 °F (at 12:00 AM)
Minimum temperature yesterday: 61 °F (at 5:30 AM)
Average temperature yesterday: 65 °F

Past Weeks' High & Low Weather Summary

 TemperatureHumidityPressure
High93 °F (Sep 17, 1:00 PM)88% (Sep 28, 12:30 AM)30.30 "Hg (Sep 28, 12:30 AM)
Low45 °F (Sep 20, 4:00 AM)8% (Sep 22, 1:30 PM)29.65 "Hg (Sep 27, 2:00 AM)
Average70 °F36%29.95 "Hg
* Reported Sep 16 10:00 PM — Oct 1 10:30 PM, Tashkent, Weather by CustomWeather, © 2014

Note: Actual official high and low records may vary slightly from our data, if they occured in-between our weather recording intervals... More about our weather records

Advertising

Tashkent weather history for previous 24 hours

 ConditionsComfort  
Time TempWeatherWind HumidityBarometerVisibility
10:30 PM
Oct 1
63 °FPassing clouds.13 mph64%30.07 "HgN/A
10:00 PM61 °FPassing clouds.15 mph68%30.09 "HgN/A
9:30 PM61 °FPassing clouds.15 mph68%30.09 "HgN/A
9:00 PM61 °FPassing clouds.10 mph68%30.09 "HgN/A
8:30 PM61 °FPassing clouds.10 mph72%30.09 "HgN/A
8:00 PM61 °FPartly cloudy.6 mph77%30.09 "HgN/A
7:30 PM61 °FPartly cloudy.6 mph88%30.12 "HgN/A
7:00 PM61 °FMostly cloudy.3 mph83%30.09 "HgN/A
6:30 PM61 °FSprinkles. Mostly cloudy.3 mph83%30.12 "HgN/A
6:00 PM61 °FSprinkles. Overcast.3 mph77%30.12 "Hg4 mi
5:30 PM63 °FSprinkles. Overcast.8 mph68%30.12 "Hg4 mi
5:00 PM63 °FSprinkles. Overcast.10 mph68%30.12 "Hg4 mi
4:30 PM63 °FSprinkles. Overcast.13 mph64%30.12 "Hg4 mi
4:00 PM66 °FSprinkles. Mostly cloudy.10 mph49%30.18 "HgN/A
3:30 PM68 °FSprinkles. More clouds than sun.8 mph40%30.15 "HgN/A
3:00 PM68 °FSprinkles. More clouds than sun.10 mph40%30.18 "HgN/A
2:30 PM70 °FMore clouds than sun.10 mph38%30.12 "HgN/A
2:00 PM70 °FPartly sunny.10 mph40%30.12 "HgN/A
1:30 PM72 °FPassing clouds.8 mph38%30.12 "HgN/A
1:00 PM72 °FPassing clouds.8 mph38%30.12 "HgN/A
12:30 PM72 °FSunny.3 mph38%30.12 "Hg10 mi
12:00 PM72 °FSunny.3 mph36%30.15 "Hg10 mi
11:30 AM72 °FSunny.3 mph38%30.15 "Hg10 mi
11:00 AM70 °FSunny.3 mph38%30.15 "Hg10 mi
10:30 AM68 °FPassing clouds.6 mph46%30.18 "HgN/A
10:00 AM66 °FBroken clouds.3 mph52%30.18 "HgN/A
9:30 AM66 °FBroken clouds.1 mph56%30.18 "HgN/A
9:00 AM64 °FBroken clouds.1 mph60%30.18 "HgN/A
8:30 AM61 °FPartly sunny.1 mph68%30.18 "HgN/A
8:00 AM61 °FPartly sunny.3 mph68%30.15 "HgN/A
7:30 AM61 °FPartly sunny.1 mph68%30.15 "HgN/A
7:00 AM61 °FBroken clouds.No wind68%30.15 "HgN/A
6:30 AM61 °FBroken clouds.3 mph68%30.12 "HgN/A
6:00 AM61 °FPassing clouds.6 mph68%30.12 "HgN/A
5:30 AM61 °FMostly cloudy.6 mph72%30.12 "HgN/A
5:00 AM63 °FSprinkles. Mostly cloudy.6 mph68%30.12 "HgN/A
4:30 AM64 °FMostly cloudy.8 mph56%30.09 "HgN/A
4:00 AM64 °FMostly cloudy.8 mph56%30.09 "HgN/A
3:30 AM64 °FMostly cloudy.10 mph56%30.09 "HgN/A
3:00 AM66 °FMostly cloudy.13 mph52%30.07 "HgN/A
2:30 AM66 °FSprinkles. Mostly cloudy.13 mph52%30.07 "HgN/A
2:00 AM66 °FSprinkles. Mostly cloudy.10 mph60%30.07 "HgN/A
1:30 AM68 °FSprinkles. Mostly cloudy.8 mph56%30.04 "HgN/A
1:00 AM70 °FMostly cloudy.3 mph57%30.04 "HgN/A
12:30 AM72 °FMostly cloudy.3 mph53%30.04 "HgN/A
12:00 AM72 °FMostly cloudy.6 mph53%30.04 "HgN/A
Weather by CustomWeather, © 2014

See weather overviewHow to use our weather pages